Weather observations for the past three days for
Bermuda
| Date | Time (adt) | Wind (kph) | Vis. (km) | Weather | Sky Cond. | Temperature (ºC) | Relative Humidity | Wind Chill (°C) | Heat Index (°C) | Pressure | Precipitation (cm) | ||||||
|---|---|---|---|---|---|---|---|---|---|---|---|---|---|---|---|---|---|
| Air | Dwpt | 6 hour | altimeter (cm) | sea level (mb) | 1 hr | 3 hr | 6 hr | ||||||||||
| Max. | Min. | ||||||||||||||||
| 31 | 03:55 | S 4 | 0.00 | Showers in Vicinity | FEW023 | 28 | 24 | 79% | 32 | 0 | 0.0 | ||||||
| 31 | 02:55 | S 4 | 0.00 | Showers in Vicinity | FEW021 | 28 | 24 | 79% | 32 | 0 | 0.0 | ||||||
| 31 | 01:55 | S 7 | 0.00 | A Few Clouds | FEW022 | 28 | 24 | 79% | 32 | 0 | 0.0 | ||||||
| 31 | 00:55 | S 11 | 0.00 | Partly Cloudy | SCT022 | 28 | 24 | 79% | 32 | 0 | 0.0 | ||||||
| 30 | 23:55 | S 11 | 0.00 | Showers in Vicinity | SCT019 | 28 | 24 | 79% | 32 | 0 | 0.0 | ||||||
| 30 | 22:55 | S 13 | 0.00 | Partly Cloudy | SCT022 SCT300 | 28 | 24 | 79% | 32 | 0 | 0.0 | ||||||
| 30 | 21:55 | S 9 | 0.00 | Partly Cloudy | FEW023 SCT300 | 28 | 24 | 79% | 32 | 0 | 0.0 | ||||||
| 30 | 20:55 | SE 9 | 0.00 | Partly Cloudy | FEW023 SCT300 | 28 | 24 | 79% | 32 | 0 | 0.0 | ||||||
| 30 | 19:55 | SE 9 | 0.00 | Mostly Cloudy | FEW023 BKN300 | 29 | 24 | 74% | 34 | 0 | 0.0 | ||||||
| 30 | 18:55 | S 7 | 0.00 | Showers in Vicinity | FEW024TCU BKN300 | 29 | 24 | 74% | 34 | 0 | 0.0 | ||||||
| 30 | 17:55 | S 9 | 0.00 | Showers in Vicinity | FEW025TCU FEW050 BKN300 | 30 | 24 | 70% | 35 | 0 | 0.0 | ||||||
| 30 | 16:55 | SE 9 | 0.00 | Showers in Vicinity | SCT030TCU SCT055 BKN300 | 30 | 24 | 70% | 35 | 0 | 0.0 | ||||||
| 30 | 15:55 | SE 9 | 0.00 | Mostly Cloudy | FEW030 FEW055 BKN300 | 30 | 24 | 70% | 35 | 0 | 0.0 | ||||||
| 30 | 14:55 | S 11 | 0.00 | Showers in Vicinity | FEW030TCU SCT300 | 31 | 24 | 66% | 37 | 0 | 0.0 | ||||||
| 30 | 13:55 | S 11 | 0.00 | Partly Cloudy | FEW026 SCT300 | 30 | 24 | 70% | 35 | 0 | 0.0 | ||||||
| 30 | 12:55 | SE 13 | 0.00 | Partly Cloudy | FEW025 SCT300 | 31 | 24 | 66% | 37 | 0 | 0.0 | ||||||
| 30 | 11:55 | S 11 | 0.00 | Partly Cloudy | FEW025 SCT080 SCT300 | 31 | 24 | 66% | 37 | 0 | 0.0 | ||||||
| 30 | 10:55 | SE 15 | 0.00 | Showers in Vicinity | FEW023 SCT300 | 30 | 24 | 70% | 35 | 0 | 0.0 | ||||||
| 30 | 09:55 | S 13 | 0.00 | Showers in Vicinity | SCT021 SCT300 | 30 | 24 | 70% | 35 | 0 | 0.0 | ||||||
| 30 | 08:55 | SE 9 | 0.00 | Showers in Vicinity | SCT022TCU SCT300 | 29 | 24 | 74% | 34 | 0 | 0.0 | ||||||
| 30 | 07:55 | S 7 | 0.00 | Showers in Vicinity | SCT022 SCT300 | 29 | 24 | 74% | 34 | 0 | 0.0 | ||||||
| 30 | 06:55 | S 7 | 0.00 | Partly Cloudy | SCT022 | 28 | 24 | 79% | 32 | 0 | 0.0 | ||||||
| 30 | 05:55 | S 9 | 0.00 | A Few Clouds | FEW021 | 28 | 24 | 79% | 32 | 0 | 0.0 | ||||||
| 30 | 04:55 | S 11 | 0.00 | A Few Clouds | FEW021 | 28 | 24 | 79% | 32 | 0 | 0.0 | ||||||
| 30 | 03:55 | S 11 | 0.00 | A Few Clouds | FEW021 | 28 | 23 | 74% | 31 | 0 | 0.0 | ||||||
| 30 | 02:55 | S 11 | 0.00 | Showers in Vicinity | FEW021 | 28 | 24 | 79% | 32 | 0 | 0.0 | ||||||
| 30 | 01:55 | SE 13 | 0.00 | A Few Clouds | FEW023 FEW300 | 28 | 24 | 79% | 32 | 0 | 0.0 | ||||||
| 30 | 00:55 | SE 13 | 0.00 | A Few Clouds | FEW022 | 28 | 24 | 79% | 32 | 0 | 0.0 | ||||||
| 29 | 23:55 | SE 17 | 0.00 | Showers in Vicinity | FEW021 | 29 | 24 | 74% | 34 | 0 | 0.0 | ||||||
| 29 | 22:55 | SE 15 | 0.00 | A Few Clouds | FEW023 | 29 | 24 | 74% | 34 | 0 | 0.0 | ||||||
| 29 | 21:55 | SE 15 | 0.00 | A Few Clouds | FEW022 | 29 | 24 | 74% | 34 | 0 | 0.0 | ||||||
| 29 | 20:55 | SE 13 | 0.00 | A Few Clouds | FEW023 | 29 | 24 | 74% | 34 | 0 | 0.0 | ||||||
| 29 | 19:55 | SE 11 | 0.00 | A Few Clouds | FEW021 | 29 | 25 | 79% | 35 | 0 | 0.0 | ||||||
| 29 | 18:55 | SE 9 | 0.00 | A Few Clouds | FEW022 | 30 | 24 | 70% | 35 | 0 | 0.0 | ||||||
| 29 | 17:55 | S 9 | 0.00 | A Few Clouds | FEW024 | 30 | 24 | 70% | 35 | 0 | 0.0 | ||||||
| 29 | 16:55 | S 11 | 0.00 | A Few Clouds | FEW023 | 30 | 24 | 70% | 35 | 0 | 0.0 | ||||||
| 29 | 15:55 | S 13 | 0.00 | A Few Clouds | FEW024 | 31 | 24 | 66% | 37 | 0 | 0.0 | ||||||
| 29 | 14:55 | S 13 | 0.00 | A Few Clouds | FEW025 | 31 | 25 | 70% | 38 | 0 | 0.0 | ||||||
| 29 | 13:55 | S 15 | 0.00 | A Few Clouds | FEW024 FEW300 | 31 | 24 | 66% | 37 | 0 | 0.0 | ||||||
| 29 | 12:55 | S 13 | 0.00 | A Few Clouds | FEW024 FEW073 | 31 | 25 | 70% | 38 | 0 | 0.0 | ||||||
| 29 | 11:55 | S 15 | 0.00 | Showers in Vicinity | FEW022 SCT071 | 31 | 25 | 70% | 38 | 0 | 0.0 | ||||||
| 29 | 10:55 | S 13 | 0.00 | Light Showers Rain | BKN021TCU BKN053 | 29 | 25 | 79% | 35 | 0 | 0.0 | ||||||
| 29 | 09:55 | S 15 | 0.00 | Showers in Vicinity | FEW021TCU FEW073 | 30 | 25 | 75% | 36 | 0 | 0.0 | ||||||
| 29 | 08:55 | S 9 | 0.00 | Showers in Vicinity | FEW023 SCT074 BKN300 | 29 | 25 | 79% | 35 | 0 | 0.0 | ||||||
| 29 | 07:55 | SE 15 | 0.00 | Showers in Vicinity | SCT019TCU BKN040 BKN300 | 27 | 24 | 84% | 30 | 0 | 0.0 | ||||||
| 29 | 06:55 | S 17 | 0.00 | Showers in Vicinity | SCT019TCU | 28 | 25 | 84% | 33 | 0 | 0.0 | ||||||
| 29 | 05:55 | S 15 | 0.00 | Showers in Vicinity | FEW018TCU | 28 | 24 | 79% | 32 | 0 | 0.0 | ||||||
| 29 | 04:55 | S 15 | 0.00 | A Few Clouds | FEW018 | 28 | 25 | 84% | 33 | 0 | 0.0 | ||||||
| 29 | 03:55 | S 17 | 0.00 | Showers in Vicinity | FEW016 | 28 | 24 | 79% | 32 | 0 | 0.0 | ||||||
| 29 | 02:55 | S 15 | 0.00 | Showers in Vicinity | FEW017 | 28 | 25 | 84% | 33 | 0 | 0.0 | ||||||
| 29 | 01:55 | S 17 | 0.00 | Showers in Vicinity | FEW016 | 29 | 25 | 79% | 35 | 0 | 0.0 | ||||||
| 29 | 00:55 | S 15 | 0.00 | Showers in Vicinity | FEW018 | 29 | 25 | 79% | 35 | 0 | 0.0 | ||||||
| 28 | 23:55 | S 13 | 0.00 | Showers in Vicinity | FEW019 | 29 | 25 | 79% | 35 | 0 | 0.0 | ||||||
| 28 | 22:55 | S 7 | 0.00 | Showers in Vicinity | FEW020TCU | 28 | 25 | 84% | 33 | 0 | 0.0 | ||||||
| 28 | 21:55 | S 13 | 0.00 | Showers in Vicinity | SCT018 | 28 | 24 | 79% | 32 | 0 | 0.0 | ||||||
| 28 | 20:55 | S 13 | 0.00 | Showers in Vicinity | FEW017 | 29 | 25 | 79% | 35 | 0 | 0.0 | ||||||
| 28 | 19:55 | S 13 | 0.00 | A Few Clouds | FEW019 FEW300 | 29 | 25 | 79% | 35 | 0 | 0.0 | ||||||
| 28 | 18:55 | S 15 | 0.00 | A Few Clouds | FEW020 FEW300 | 29 | 25 | 79% | 35 | 0 | 0.0 | ||||||
| 28 | 17:55 | S 17 | 0.00 | Partly Cloudy | FEW020 SCT300 | 30 | 25 | 75% | 36 | 0 | 0.0 | ||||||
| 28 | 16:55 | S 19 | 0.00 | Showers in Vicinity | FEW020CB | 30 | 24 | 70% | 35 | 0 | 0.0 | ||||||
| 28 | 15:55 | S 17 | 0.00 | Partly Cloudy | SCT021 SCT036 | 31 | 25 | 70% | 38 | 0 | 0.0 | ||||||
| 28 | 14:55 | S 17 | 0.00 | Showers in Vicinity | SCT022 SCT075 | 31 | 26 | 75% | 39 | 0 | 0.0 | ||||||
| 28 | 13:55 | S 15 | 0.00 | Showers in Vicinity | SCT021 BKN065 | 30 | 25 | 75% | 36 | 0 | 0.0 | ||||||
| 28 | 12:55 | S 17 | 0.00 | Showers in Vicinity | SCT021TCU | 31 | 26 | 75% | 39 | 0 | 0.0 | ||||||
| 28 | 11:55 | S 19 | 0.00 | Showers in Vicinity | FEW020 | 31 | 25 | 70% | 38 | 0 | 0.0 | ||||||
| 28 | 10:55 | S 20 | 0.00 | A Few Clouds | FEW021 | 30 | 25 | 75% | 36 | 0 | 0.0 | ||||||
| 28 | 09:55 | S 19 | 0.00 | Showers in Vicinity | SCT021 | 29 | 25 | 79% | 35 | 0 | 0.0 | ||||||
| 28 | 08:55 | S 19 | 0.00 | Showers in Vicinity | SCT019TCU | 29 | 24 | 74% | 34 | 0 | 0.0 | ||||||
| 28 | 07:55 | SE 15 | 0.00 | Showers in Vicinity | SCT021 | 29 | 25 | 79% | 35 | 0 | 0.0 | ||||||
| 28 | 06:55 | S 15 | 0.00 | Partly Cloudy | SCT019 | 28 | 25 | 84% | 33 | 0 | 0.0 | ||||||
| 28 | 05:55 | SE 15 | 0.00 | A Few Clouds | FEW017 | 28 | 25 | 84% | 33 | 0 | 0.0 | ||||||
| 28 | 04:55 | S 17 | 0.00 | A Few Clouds | FEW020 | 28 | 25 | 84% | 33 | 0 | 0.0 | ||||||
| Date | Time (adt) | Wind (kph) | Vis. (km) | Weather | Sky Cond. | Air | Dwpt | Max. | Min. | Relative Humidity | Wind Chill (°C) | Heat Index (°C) | altimeter (cm) | sea level (mb) | 1 hr | 3 hr | 6 hr |
| 6 hour | |||||||||||||||||
| Temperature (ºC) | Pressure | Precipitation (cm) | |||||||||||||||